Regional Weather Roundup
Issued by NWS

Home | Current Version | Previous Version | Text Only | Print | Product List | Glossary Off
Versions: 1 2 3 4 5 6 7 8 9 10 11 12 13 14 15 16 17 18 19 20 21 22 23 24 25 26 27 28 29 30 31 32 33 34 35 36 37 38 39 40 41 42 43 44 45 46 47 48 49 50

000
ASUS44 KMEG 201610
RWRTN
TENNESSEE HOURLY STATE WEATHER ROUNDUP
NATIONAL WEATHER SERVICE MEMPHIS TN
1100 AM CDT WED AUG 20 2014

TNZ002-004-019-021-049-052-054-088>092-201700-
WEST TENNESSEE

CITY           SKY/WX    TMP DP  RH WIND       PRES   REMARKS
MEMPHIS INTL   MOSUNNY   89  73  59 SW7       30.04R HX  97
NWS MEMPHIS      N/A     88 N/A N/A MISG        N/A
JACKSON        SUNNY     88  76  67 W12       30.02R HX  99
DYERSBURG      SUNNY     88  70  55 W9        30.01S HX  92
UNION CITY     SUNNY     88  79  74 SW7       29.98S HX 102
PARIS          SUNNY     86  75  70 W9        30.00S HX  95
HUNTINGDON     SUNNY     86  76  71 W10       30.00R HX  96
LEXINGTON      MOSUNNY   90  77  66 SW6       30.01S HX 102
SAVANNAH       SUNNY     88  79  74 W10       30.04S HX 102
$$

TNZ008-025-027-028-033-062-065-066-201700-
NORTH MIDDLE TENNESSEE

CITY           SKY/WX    TMP DP  RH WIND       PRES   REMARKS
NASHVILLE      MOSUNNY   91  76  61 SW5       30.00S HX 103
CLARKSVILLE    MOSUNNY   88  76  67 SW7       29.98R HX  99
SMYRNA         MOSUNNY   90  76  63 SW6       30.01S HX 101
MURFREESBORO   SUNNY     89  76  65 VRB3      30.00S HX 100
COOKEVILLE     CLOUDY    84  77  79 SW6       30.04S HX  94
GALLATIN       SUNNY     88  78  72 VRB3      30.00R HX 101
CROSSVILLE     PTSUNNY   82  73  74 SW9       30.09S
$$

TNZ061-075-076-078-094-096-097-201700-
SOUTH MIDDLE TENNESSEE

CITY           SKY/WX    TMP DP  RH WIND       PRES   REMARKS
LEWISBURG      MOSUNNY   90  76  63 SW5       30.02S HX 101
FAYETTEVILLE   SUNNY     84  75  74 W9        30.06S HX  92
TULLAHOMA      MOSUNNY   84  75  74 S5        30.07S HX  92
WINCHESTER     PTSUNNY   84  75  74 SW6       30.06S HX  92
MCMINNVILLE    MOSUNNY   84  81  89 VRB7      30.05S HX  98
COLUMBIA       MOSUNNY   90  79  70 VRB6      30.01S HX 105
$$

TNZ017-018-042-046-047-201700-
NORTHEAST TENNESSEE

CITY           SKY/WX    TMP DP  RH WIND       PRES   REMARKS
TRI CITIES     MOSUNNY   73  64  73 SW6       30.08S
ELIZABETHTON   SUNNY     68  63  83 CALM      30.09S
$$

TNZ012-013-036-069-073-074-201700-
CENTRAL EAST TENNESSEE

CITY           SKY/WX    TMP DP  RH WIND       PRES   REMARKS
KNOXVILLE      PTSUNNY   84  75  74 W7        30.04R HX  92
OAK RIDGE      MOSUNNY   85  74  69 VRB5      30.04S HX  92
GATLINBURG     MOSUNNY   88  72  58 W6        30.04R HX  94
MORRISTOWN       N/A     82  73  74 W3        30.08R
$$

TNZ083-085-099-201700-
SOUTHEAST TENNESSEE

CITY           SKY/WX    TMP DP  RH WIND       PRES   REMARKS
CHATTANOOGA    PTSUNNY   87  73  62 W6        30.05R HX  94
$$

SKY/WX REPORTED AS FAIR MEANS FEW OR NO CLOUDS BELOW
12 THOUSAND FEET.




USA.gov is the U.S. government's official web portal to all federal, state and local government web resources and services.